Tekamah, NE

8:21 PM CST on November 18, 2017 (GMT -0600)
Tekamah

Weather History for KTQE - March, 2013

Change the Weather History Date:

Saturday, March 16, 2013

  Actual Average Record
Temperature  
Mean Temperature 32 °F -  
Max Temperature 37 °F 47 °F 91 °F (2015)
Min Temperature 28 °F 26 °F 6 °F (1962)
Degree Days  
Heating Degree Days 32    
Moisture  
Dew Point 26 °F    
Average Humidity 77    
Maximum Humidity 93    
Minimum Humidity 60    
Precipitation  
Precipitation 0.00 in - - ()
Sea Level Pressure  
Sea Level Pressure 30.07 in    
Wind  
Wind Speed 17 mph (North)    
Max Wind Speed 23 mph    
Max Gust Speed 29 mph    
Visibility 7 miles    
Events      
Averages and records for this station are not official NWS values.
T = Trace of Precipitation, MM = Missing Value Source: NWS Daily Summary

Daily Weather History Graph

Daily Weather History Graph

Search for Another Location

Airport or City:

Trip Planner

Search our weather history database for the weather conditions in past years. The results will help you decide how hot, cold, wet, or windy it might be!

Date:

Astronomy

Mar. 16, 2013 Rise Set
Actual Time 7:34 AM CDT 7:32 PM CDT
Civil Twilight 7:06 AM CDT 8:00 PM CDT
Nautical Twilight 6:34 AM CDT 8:32 PM CDT
Astronomical Twilight 6:01 AM CDT 9:05 PM CDT
Moon 10:00 AM CDT (3/16) No Moon Set
Length of Visible Light 12h 53m
Length of Day
11h 58m
Waxing Crescent, 23% of the Moon is Illuminated
Mar 16
Waxing Crescent
Mar 19
First Quarter
Mar 27
Full
Apr 2
Last Quarter
Apr 10
New

Hourly Weather History & Observations

Time (CDT) Temp. Windchill Dew Point Humidity Pressure Visibility Wind Dir Wind Speed Gust Speed Precip Events Conditions
12:51 AM 37.4 °F 27.8 °F 35.6 °F 93% 29.88 in 2.5 mi North 17.3 mph - N/A   Overcast
12:54 AM 37.9 °F 28.2 °F 35.1 °F 89% 29.89 in 2.5 mi North 18.4 mph - N/A   Overcast
1:28 AM 37.4 °F 27.5 °F 33.8 °F 87% 29.91 in 2.0 mi NNW 18.4 mph - N/A   Overcast
1:54 AM 36.0 °F 25.6 °F 32.0 °F 86% 29.93 in 3.0 mi NW 18.4 mph - N/A   Overcast
2:01 AM 35.6 °F 25.5 °F 32.0 °F 87% 29.93 in 3.0 mi NW 17.3 mph - N/A   Overcast
2:22 AM 35.6 °F 25.5 °F 32.0 °F 87% 29.93 in 4.0 mi NW 17.3 mph - N/A   Overcast
2:41 AM 35.6 °F 25.2 °F 32.0 °F 87% 29.93 in 3.0 mi NNW 18.4 mph - N/A   Overcast
2:54 AM 35.1 °F 23.3 °F 32.0 °F 89% 29.94 in 3.0 mi NNW 23.0 mph - N/A   Overcast
3:32 AM 35.6 °F 25.5 °F 30.2 °F 81% 29.95 in 5.0 mi NNW 17.3 mph 27.6 mph N/A   Haze
3:54 AM 35.1 °F 23.3 °F 30.0 °F 82% 29.98 in 5.0 mi NW 23.0 mph - N/A   Haze
4:54 AM 34.0 °F 23.0 °F 28.9 °F 82% 30.01 in 6.0 mi NNW 18.4 mph - N/A   Haze
5:05 AM 33.8 °F 22.2 °F 28.4 °F 81% 30.01 in 6.0 mi NNW 20.7 mph - N/A   Haze
6:20 AM 30.2 °F 17.4 °F 26.6 °F 86% 30.03 in 7.0 mi NNW 20.7 mph 28.8 mph N/A   Overcast
7:45 AM 28.4 °F 14.4 °F 24.8 °F 86% 30.08 in 5.0 mi NNW 23.0 mph 27.6 mph N/A   Haze
7:54 AM 28.9 °F 15.1 °F 24.1 °F 82% 30.11 in 4.0 mi NNW 23.0 mph - N/A   Haze
8:54 AM 28.9 °F 16.1 °F 23.0 °F 78% 30.12 in 5.0 mi NNW 19.6 mph - N/A   Haze
9:54 AM 28.9 °F 15.4 °F 23.0 °F 78% 30.14 in 5.0 mi North 21.9 mph - N/A   Haze
10:54 AM 30.0 °F 16.9 °F 23.0 °F 75% 30.14 in 9.0 mi North 21.9 mph - N/A   Overcast
11:54 AM 30.0 °F 18.7 °F 21.9 °F 72% 30.16 in 10.0 mi North 16.1 mph - N/A   Overcast
12:54 PM 30.9 °F 20.2 °F 23.0 °F 72% 30.17 in 10.0 mi North 15.0 mph 23.0 mph N/A   Overcast
1:54 PM 30.9 °F 19.8 °F 21.9 °F 69% 30.17 in 10.0 mi North 16.1 mph - N/A   Overcast
2:54 PM 32.0 °F 22.5 °F 23.0 °F 69% 30.14 in 10.0 mi North 12.7 mph - N/A   Overcast
3:54 PM 33.1 °F 23.9 °F 23.0 °F 66% 30.13 in 10.0 mi North 12.7 mph - N/A   Mostly Cloudy
4:03 PM 33.8 °F 24.8 °F 21.2 °F 60% 30.11 in 10.0 mi North 12.7 mph - N/A   Scattered Clouds
4:12 PM 33.8 °F 24.8 °F 23.0 °F 65% 30.11 in 10.0 mi NNE 12.7 mph - N/A   Mostly Cloudy
4:54 PM 33.1 °F 23.9 °F 23.0 °F 66% 30.12 in 9.0 mi North 12.7 mph - N/A   Mostly Cloudy
5:54 PM 33.1 °F 24.4 °F 23.0 °F 66% 30.14 in 9.0 mi North 11.5 mph - N/A   Overcast
6:54 PM 32.0 °F 24.2 °F 23.0 °F 69% 30.14 in 10.0 mi NNE 9.2 mph - N/A   Mostly Cloudy
7:54 PM 32.0 °F 24.8 °F 23.0 °F 69% 30.17 in 10.0 mi North 8.1 mph - N/A   Overcast
8:54 PM 30.9 °F 22.8 °F 23.0 °F 72% 30.20 in 10.0 mi NNE 9.2 mph - N/A   Overcast
9:31 PM 30.2 °F 22.6 °F 23.0 °F 75% 30.19 in 10.0 mi NNE 8.1 mph - N/A   Overcast
9:54 PM 30.9 °F 24.3 °F 23.0 °F 72% 30.22 in 10.0 mi NE 6.9 mph - N/A   Overcast
10:54 PM 30.9 °F 23.5 °F 21.9 °F 69% 30.22 in 10.0 mi NE 8.1 mph - N/A   Overcast
11:54 PM 30.9 °F 22.8 °F 21.9 °F 69% 30.21 in 10.0 mi ENE 9.2 mph - N/A   Overcast